TimeMST,TemperatureF,Dew PointF,Humidity,Sea Level PressureIn,VisibilityMPH,Wind Direction,Wind SpeedMPH,Gust SpeedMPH,PrecipitationIn,Events,Conditions,WindDirDegrees,DateUTC
12:58 AM,45.5,36.5,71,30.02,10.0,SW,6.9,-,N/A,,Clear,220,2013-02-22 07:58:00
1:58 AM,43.7,35.8,74,30.03,10.0,East,3.5,-,N/A,,Clear,100,2013-02-22 08:58:00
2:58 AM,43.9,38.3,81,30.02,10.0,South,2.3,-,N/A,,Clear,170,2013-02-22 09:58:00
3:58 AM,41.0,36.0,82,30.04,10.0,North,3.5,-,N/A,,Clear,360,2013-02-22 10:58:00
4:58 AM,38.8,35.1,86,30.06,10.0,NW,2.3,-,N/A,,Clear,320,2013-02-22 11:58:00
5:58 AM,39.6,34.9,83,30.06,10.0,South,2.3,-,N/A,,Clear,170,2013-02-22 12:58:00
6:58 AM,38.1,35.1,89,30.09,10.0,South,2.3,-,N/A,,Clear,180,2013-02-22 13:58:00
7:58 AM,40.5,33.4,76,30.12,10.0,North,4.6,-,N/A,,Clear,360,2013-02-22 14:58:00
8:58 AM,45.9,34.0,63,30.14,10.0,NW,3.5,-,N/A,,Clear,320,2013-02-22 15:58:00
9:58 AM,49.6,30.4,48,30.13,10.0,Variable,3.5,-,N/A,,Clear,0,2013-02-22 16:58:00
10:58 AM,51.8,31.8,47,30.14,10.0,Variable,2.3,-,N/A,,Clear,0,2013-02-22 17:58:00
11:58 AM,54.1,30.7,41,30.14,10.0,SW,4.6,-,N/A,,Clear,230,2013-02-22 18:58:00
12:58 PM,56.8,29.7,35,30.11,10.0,SSE,6.9,-,N/A,,Clear,150,2013-02-22 19:58:00
1:58 PM,59.0,26.4,29,30.08,10.0,South,11.5,-,N/A,,Clear,190,2013-02-22 20:58:00
2:58 PM,60.4,24.8,26,30.07,10.0,Variable,2.3,-,N/A,,Clear,0,2013-02-22 21:58:00
3:58 PM,61.7,17.6,18,30.05,10.0,WNW,6.9,-,N/A,,Clear,300,2013-02-22 22:58:00
4:58 PM,62.1,20.1,20,30.04,10.0,Variable,3.5,-,N/A,,Clear,0,2013-02-22 23:58:00
5:58 PM,61.0,21.4,22,30.06,10.0,SSW,9.2,-,N/A,,Clear,210,2013-02-23 00:58:00
6:58 PM,58.1,23.7,27,30.09,10.0,West,4.6,-,N/A,,Clear,270,2013-02-23 01:58:00
7:58 PM,54.5,23.9,31,30.09,10.0,SW,5.8,-,N/A,,Clear,220,2013-02-23 02:58:00
8:58 PM,49.5,29.8,47,30.12,10.0,West,5.8,-,N/A,,Clear,270,2013-02-23 03:58:00
9:58 PM,50.2,27.9,42,30.11,10.0,Calm,Calm,-,N/A,,Clear,0,2013-02-23 04:58:00
10:58 PM,47.8,28.8,48,30.12,10.0,South,3.5,-,N/A,,Clear,170,2013-02-23 05:58:00
11:58 PM,47.8,28.4,47,30.13,10.0,NNW,3.5,-,N/A,,Clear,330,2013-02-23 06:58:00